Year,Month,Day,Hour,Minute,Value (Times are PST for temperature in C)
2008,07,27,11,30,17.50
2008,07,27,11,31,17.50
2008,07,27,11,32,17.60
2008,07,27,11,33,17.70
2008,07,27,11,34,17.80
2008,07,27,11,35,17.90
2008,07,27,11,36,17.90
2008,07,27,11,37,18.00
2008,07,27,11,38,18.00
2008,07,27,11,39,18.10
2008,07,27,11,40,18.10
2008,07,27,11,41,18.00
2008,07,27,11,42,17.80
2008,07,27,11,43,17.60
2008,07,27,11,44,17.40
2008,07,27,11,45,17.20
2008,07,27,11,46,17.10
2008,07,27,11,47,17.00
2008,07,27,11,48,16.90
2008,07,27,11,49,16.80
2008,07,27,11,50,16.80
2008,07,27,11,51,16.90
2008,07,27,11,52,16.90
2008,07,27,11,53,16.90
2008,07,27,11,54,16.80
2008,07,27,11,55,16.80
2008,07,27,11,56,16.80
2008,07,27,11,57,16.90
2008,07,27,11,58,16.90
2008,07,27,11,59,16.90
2008,07,27,12,00,16.90
2008,07,27,12,01,16.90
2008,07,27,12,02,17.00
2008,07,27,12,03,17.10
2008,07,27,12,04,17.10
2008,07,27,12,05,17.00
2008,07,27,12,06,17.00
2008,07,27,12,07,16.90
2008,07,27,12,08,16.90
2008,07,27,12,09,16.90
2008,07,27,12,10,16.80
2008,07,27,12,11,16.80
2008,07,27,12,12,16.80
2008,07,27,12,13,16.90
2008,07,27,12,14,16.90
2008,07,27,12,15,17.00
2008,07,27,12,16,17.00
2008,07,27,12,17,16.90
2008,07,27,12,18,16.90
2008,07,27,12,19,16.80
2008,07,27,12,20,16.90
2008,07,27,12,21,16.90
2008,07,27,12,22,16.90
2008,07,27,12,23,16.80
2008,07,27,12,24,16.80
2008,07,27,12,25,16.90
2008,07,27,12,26,17.00
2008,07,27,12,27,17.10
2008,07,27,12,28,17.20
2008,07,27,12,29,17.30
2008,07,27,12,30,17.40
2008,07,27,12,31,17.50
2008,07,27,12,32,17.60
2008,07,27,12,33,17.70
2008,07,27,12,34,17.80
2008,07,27,12,35,17.90
2008,07,27,12,36,18.20
2008,07,27,12,37,18.40
2008,07,27,12,38,18.70
2008,07,27,12,39,18.80
2008,07,27,12,40,18.60
2008,07,27,12,41,18.60
2008,07,27,12,42,18.50
2008,07,27,12,43,18.50
2008,07,27,12,44,18.40
2008,07,27,12,45,18.60
2008,07,27,12,46,18.70
2008,07,27,12,47,18.90
2008,07,27,12,48,19.10
2008,07,27,12,49,19.20
2008,07,27,12,50,19.20
2008,07,27,12,51,19.20
2008,07,27,12,52,19.20
2008,07,27,12,53,19.30
2008,07,27,12,54,19.30
2008,07,27,12,55,19.30
2008,07,27,12,56,19.30
2008,07,27,12,57,19.20
2008,07,27,12,58,19.20
2008,07,27,12,59,19.20
2008,07,27,13,00,19.20
2008,07,27,13,01,19.20
2008,07,27,13,02,19.30
2008,07,27,13,03,19.40
2008,07,27,13,04,19.50
2008,07,27,13,05,19.70
2008,07,27,13,06,19.90
2008,07,27,13,07,20.20
2008,07,27,13,08,20.30
2008,07,27,13,09,20.30
2008,07,27,13,10,20.20
2008,07,27,13,11,20.20
2008,07,27,13,12,20.10
2008,07,27,13,13,20.00
2008,07,27,13,14,19.80
2008,07,27,13,15,19.60
2008,07,27,13,16,19.60
2008,07,27,13,17,19.70
2008,07,27,13,18,19.70
2008,07,27,13,19,19.80
2008,07,27,13,20,19.90
2008,07,27,13,21,19.90
2008,07,27,13,22,19.90
2008,07,27,13,23,19.90
2008,07,27,13,24,19.80
2008,07,27,13,25,19.70
2008,07,27,13,26,19.60
2008,07,27,13,27,19.50
2008,07,27,13,28,19.30
2008,07,27,13,29,19.20
2008,07,27,13,30,19.10
2008,07,27,13,31,19.10
2008,07,27,13,32,19.00
2008,07,27,13,33,18.90
2008,07,27,13,34,18.90
2008,07,27,13,35,18.90
2008,07,27,13,36,18.90
2008,07,27,13,37,19.10
2008,07,27,13,38,19.20
2008,07,27,13,39,19.40
2008,07,27,13,40,19.60
2008,07,27,13,41,19.70
2008,07,27,13,42,19.80
2008,07,27,13,43,19.90
2008,07,27,13,44,20.00
2008,07,27,13,45,20.20
2008,07,27,13,46,20.10
2008,07,27,13,47,19.90
2008,07,27,13,48,19.70
2008,07,27,13,49,19.60
2008,07,27,13,50,19.50
2008,07,27,13,51,19.40
2008,07,27,13,52,19.40
2008,07,27,13,53,19.50
2008,07,27,13,54,19.60
2008,07,27,13,55,19.60
2008,07,27,13,56,19.70
2008,07,27,13,57,19.70
2008,07,27,13,58,19.70
2008,07,27,13,59,19.80
2008,07,27,14,00,19.90
2008,07,27,14,01,19.90
2008,07,27,14,02,20.00
2008,07,27,14,03,20.10
2008,07,27,14,04,20.20
2008,07,27,14,05,20.30
2008,07,27,14,06,20.40
2008,07,27,14,07,20.50
2008,07,27,14,08,20.60
2008,07,27,14,09,20.80
2008,07,27,14,10,20.90
2008,07,27,14,11,21.00
2008,07,27,14,12,21.10
2008,07,27,14,13,21.30
2008,07,27,14,14,21.50
2008,07,27,14,15,21.60
2008,07,27,14,16,21.70
2008,07,27,14,17,21.60
2008,07,27,14,18,21.50
2008,07,27,14,19,21.30
2008,07,27,14,20,21.10
2008,07,27,14,21,20.90
2008,07,27,14,22,20.70
2008,07,27,14,23,20.50
2008,07,27,14,24,20.40
2008,07,27,14,25,20.30
2008,07,27,14,26,20.20
2008,07,27,14,27,20.20
2008,07,27,14,28,20.20
2008,07,27,14,29,20.30
2008,07,27,14,30,20.60
2008,07,27,14,31,20.70
2008,07,27,14,32,20.90
2008,07,27,14,33,20.90
2008,07,27,14,34,21.00
2008,07,27,14,35,21.10
2008,07,27,14,36,21.20
2008,07,27,14,37,21.20
2008,07,27,14,38,21.20
2008,07,27,14,39,21.20
2008,07,27,14,40,21.10
2008,07,27,14,41,20.80
2008,07,27,14,42,20.60
2008,07,27,14,43,20.50
2008,07,27,14,44,20.50
2008,07,27,14,45,20.50
2008,07,27,14,46,20.60
2008,07,27,14,47,20.60
2008,07,27,14,48,20.60
2008,07,27,14,49,20.70
2008,07,27,14,50,20.70
2008,07,27,14,51,20.50
2008,07,27,14,52,20.30
2008,07,27,14,53,20.10
2008,07,27,14,54,20.00
2008,07,27,14,55,19.90
2008,07,27,14,56,19.70
2008,07,27,14,57,19.70
2008,07,27,14,58,19.70
2008,07,27,14,59,19.80
2008,07,27,15,00,19.80
2008,07,27,15,01,19.90
2008,07,27,15,02,19.80
2008,07,27,15,03,19.80
2008,07,27,15,04,19.70
2008,07,27,15,05,19.80
2008,07,27,15,06,19.80
2008,07,27,15,07,19.70
2008,07,27,15,08,19.70
2008,07,27,15,09,19.70
2008,07,27,15,10,19.70
2008,07,27,15,11,19.70
2008,07,27,15,12,19.60
2008,07,27,15,13,19.60
2008,07,27,15,14,19.50
2008,07,27,15,15,19.40
2008,07,27,15,16,19.30
2008,07,27,15,17,19.20
2008,07,27,15,18,19.10
2008,07,27,15,19,19.00
2008,07,27,15,20,18.90
2008,07,27,15,21,18.80
2008,07,27,15,22,18.90
2008,07,27,15,23,18.90
2008,07,27,15,24,19.00
2008,07,27,15,25,19.00
2008,07,27,15,26,18.90
2008,07,27,15,27,18.70
2008,07,27,15,28,18.40
2008,07,27,15,29,18.20
2008,07,27,15,30,18.10
2008,07,27,15,31,17.90
2008,07,27,15,32,17.90
2008,07,27,15,33,17.90
2008,07,27,15,34,17.80
2008,07,27,15,35,17.80
2008,07,27,15,36,17.80
2008,07,27,15,37,17.80
2008,07,27,15,38,17.80
2008,07,27,15,39,17.80
2008,07,27,15,40,17.80
2008,07,27,15,41,17.80
2008,07,27,15,42,17.80
2008,07,27,15,43,17.80
2008,07,27,15,44,17.90
2008,07,27,15,45,17.90
2008,07,27,15,46,17.80
2008,07,27,15,47,17.90
2008,07,27,15,48,18.10
2008,07,27,15,49,18.20
2008,07,27,15,50,18.30
2008,07,27,15,51,18.40
2008,07,27,15,52,18.50
2008,07,27,15,53,18.60
2008,07,27,15,54,18.80
2008,07,27,15,55,18.90
2008,07,27,15,56,19.10
2008,07,27,15,57,19.20
2008,07,27,15,58,19.30
2008,07,27,15,59,19.40
2008,07,27,16,00,19.50
2008,07,27,16,01,19.60
2008,07,27,16,02,19.70
2008,07,27,16,03,19.70
2008,07,27,16,04,19.70
2008,07,27,16,05,19.80
2008,07,27,16,06,19.70
2008,07,27,16,07,19.60
2008,07,27,16,08,19.50
2008,07,27,16,09,19.50
2008,07,27,16,10,19.40
2008,07,27,16,11,19.30
2008,07,27,16,12,19.10
2008,07,27,16,13,18.90
2008,07,27,16,14,18.60
2008,07,27,16,15,18.40
2008,07,27,16,16,18.30
2008,07,27,16,17,18.20
2008,07,27,16,18,18.20
2008,07,27,16,19,18.20
2008,07,27,16,20,18.20
2008,07,27,16,21,18.20
2008,07,27,16,22,18.20
2008,07,27,16,23,18.30
2008,07,27,16,24,18.50
2008,07,27,16,25,18.60
2008,07,27,16,26,18.80
2008,07,27,16,27,18.90
2008,07,27,16,28,19.00
2008,07,27,16,29,19.10
2008,07,27,16,30,19.10
2008,07,27,16,31,19.20
2008,07,27,16,32,19.30
2008,07,27,16,33,19.40
2008,07,27,16,34,19.50
2008,07,27,16,35,19.50
2008,07,27,16,36,19.60
2008,07,27,16,37,19.70
2008,07,27,16,38,19.80
2008,07,27,16,39,20.00
2008,07,27,16,40,20.10
2008,07,27,16,41,20.10
2008,07,27,16,42,20.10
2008,07,27,16,43,20.20
2008,07,27,16,44,20.30
2008,07,27,16,45,20.40
2008,07,27,16,46,20.50
2008,07,27,16,47,20.60
2008,07,27,16,48,20.80
2008,07,27,16,49,20.80
2008,07,27,16,50,20.90
2008,07,27,16,51,20.80
2008,07,27,16,52,20.80
2008,07,27,16,53,20.70
2008,07,27,16,54,20.60
2008,07,27,16,55,20.50
2008,07,27,16,56,20.50
2008,07,27,16,57,20.40
2008,07,27,16,58,20.40
2008,07,27,16,59,20.40
2008,07,27,17,00,20.50
2008,07,27,17,01,20.50
2008,07,27,17,02,20.60
2008,07,27,17,03,20.70
2008,07,27,17,04,20.80
2008,07,27,17,05,20.90
2008,07,27,17,06,20.90
2008,07,27,17,07,20.90
2008,07,27,17,08,20.80
2008,07,27,17,09,20.80
2008,07,27,17,10,20.70
2008,07,27,17,11,20.70
2008,07,27,17,12,20.60
2008,07,27,17,13,20.60
2008,07,27,17,14,20.60
2008,07,27,17,15,20.60
2008,07,27,17,16,20.70
2008,07,27,17,17,20.80
2008,07,27,17,18,20.90
2008,07,27,17,19,21.10
2008,07,27,17,20,21.50
2008,07,27,17,21,21.80
2008,07,27,17,22,22.10
2008,07,27,17,23,22.30
2008,07,27,17,24,22.60
2008,07,27,17,25,22.70
2008,07,27,17,26,22.70
2008,07,27,17,27,22.80
2008,07,27,17,28,22.80
2008,07,27,17,29,22.90
2008,07,27,17,30,22.90
2008,07,27,17,31,22.90
2008,07,27,17,32,22.90
2008,07,27,17,33,22.80
2008,07,27,17,34,22.80
2008,07,27,17,35,22.70
2008,07,27,17,36,22.70
2008,07,27,17,37,22.70
2008,07,27,17,38,22.60
2008,07,27,17,39,22.50
2008,07,27,17,40,22.40
2008,07,27,17,41,22.40
2008,07,27,17,42,22.30
2008,07,27,17,43,22.40
2008,07,27,17,44,22.40
2008,07,27,17,45,22.40
2008,07,27,17,46,22.40
2008,07,27,17,47,22.30
2008,07,27,17,48,22.30
2008,07,27,17,49,22.30
2008,07,27,17,50,22.30
2008,07,27,17,51,22.30
2008,07,27,17,52,22.30
2008,07,27,17,53,22.30
2008,07,27,17,54,22.30
2008,07,27,17,55,22.30
2008,07,27,17,56,22.30
2008,07,27,17,57,22.30
2008,07,27,17,58,22.30
2008,07,27,17,59,22.30
2008,07,27,18,00,22.20
2008,07,27,18,01,22.20
2008,07,27,18,02,22.20
2008,07,27,18,03,22.20
2008,07,27,18,04,22.10
2008,07,27,18,05,22.10
2008,07,27,18,06,22.10
2008,07,27,18,07,22.10
2008,07,27,18,08,22.10
2008,07,27,18,09,22.00
2008,07,27,18,10,22.00
2008,07,27,18,11,22.00
2008,07,27,18,12,22.00
2008,07,27,18,13,22.00
2008,07,27,18,14,22.00
2008,07,27,18,15,22.00
2008,07,27,18,16,22.00
2008,07,27,18,17,21.90
2008,07,27,18,18,21.90
2008,07,27,18,19,21.80
2008,07,27,18,20,21.80
2008,07,27,18,21,21.80
2008,07,27,18,22,21.80
2008,07,27,18,23,21.80
2008,07,27,18,24,21.80
2008,07,27,18,25,21.70
2008,07,27,18,26,21.70
2008,07,27,18,27,21.70
2008,07,27,18,28,21.60
2008,07,27,18,29,21.60
2008,07,27,18,30,21.60
2008,07,27,18,31,21.60
2008,07,27,18,32,21.60
2008,07,27,18,33,21.60
2008,07,27,18,34,21.50
2008,07,27,18,35,21.50
2008,07,27,18,36,21.40
2008,07,27,18,37,21.40
2008,07,27,18,38,21.40
2008,07,27,18,39,21.40
2008,07,27,18,40,21.40
2008,07,27,18,41,21.40
2008,07,27,18,42,21.40
2008,07,27,18,43,21.40
2008,07,27,18,44,21.40
2008,07,27,18,45,21.40
2008,07,27,18,46,21.40
2008,07,27,18,47,21.40
2008,07,27,18,48,21.40
2008,07,27,18,49,21.40
2008,07,27,18,50,21.40
2008,07,27,18,51,21.30
2008,07,27,18,52,21.30
2008,07,27,18,53,21.30
2008,07,27,18,54,21.20
2008,07,27,18,55,21.20
2008,07,27,18,56,21.20
2008,07,27,18,57,21.10
2008,07,27,18,58,21.10
2008,07,27,18,59,21.10
2008,07,27,19,00,21.10
2008,07,27,19,01,21.00
2008,07,27,19,02,21.00
2008,07,27,19,03,21.00
2008,07,27,19,04,21.00
2008,07,27,19,05,21.00
2008,07,27,19,06,21.00
2008,07,27,19,07,21.00
2008,07,27,19,08,21.00
2008,07,27,19,09,21.00
2008,07,27,19,10,21.00
2008,07,27,19,11,21.00
2008,07,27,19,12,21.00
2008,07,27,19,13,21.00
2008,07,27,19,14,21.00
